Total_Precipitation_Accumulation
0.79 0.63 0.54 0.54 0.54 0.50 0.56 0.80 1.29 1.81 2.27 2.54 2.71 2.73 2.70 2.55 2.37 2.37 2.43 2.37 2.21 2.09 2.00 1.81 1.68 1.69 1.67 1.63 1.58 1.63 1.73 1.84 1.90 1.82 1.75 1.75 1.79 1.66 1.46 1.38 1.34 1.42 1.37 1.31
0.72 0.58 0.57 0.67 0.65 0.67 0.74 0.93 1.22 1.70 2.36 2.41 2.32 2.12 2.15 2.19 2.19 2.31 2.48 2.51 2.33 2.20 2.07 1.87 1.70 1.62 1.58 1.48 1.40 1.47 1.54 1.71 1.80 1.76 1.68 1.62 1.65 1.62 1.55 1.49 1.44 1.40 1.37 1.32
0.95 0.73 0.89 1.32 1.06 1.03 1.13 1.19 1.38 1.82 2.03 1.79 1.83 1.86 1.95 1.99 2.06 2.27 2.43 2.44 2.33 2.26 2.13 1.94 1.81 1.72 1.76 1.59 1.39 1.48 1.54 1.56 1.62 1.66 1.71 1.69 1.64 1.62 1.65 1.67 1.63 1.48 1.34 1.30
1.00 1.21 1.83 1.70 1.09 1.04 1.17 1.30 1.22 1.30 1.34 1.42 1.56 1.67 1.84 1.89 2.01 2.26 2.41 2.54 2.51 2.35 2.15 1.89 1.70 1.63 1.61 1.59 1.49 1.52 1.51 1.46 1.48 1.48 1.53 1.55 1.61 1.65 1.65 1.62 1.59 1.53 1.39 1.33
1.30 1.71 1.95 1.67 1.10 1.04 1.29 1.56 1.22 1.18 1.13 1.23 1.35 1.52 1.95 2.01 2.04 2.20 2.39 2.43 2.41 2.24 2.10 2.00 1.76 1.65 1.56 1.51 1.56 1.49 1.38 1.31 1.28 1.26 1.33 1.36 1.43 1.56 1.67 1.65 1.53 1.41 1.33 1.29
1.50 2.04 2.53 2.12 1.08 0.75 1.13 2.01 1.38 1.10 1.02 1.19 1.39 1.85 2.03 1.84 1.80 1.84 1.91 1.95 1.93 1.82 1.76 1.77 1.61 1.55 1.54 1.52 1.52 1.45 1.30 1.19 1.15 1.19 1.29 1.33 1.37 1.52 1.60 1.63 1.48 1.30 1.23 1.24
1.58 2.07 2.27 1.32 0.81 0.91 1.88 2.32 1.66 1.34 1.20 1.21 1.42 1.60 1.52 1.44 1.53 1.63 1.71 1.76 1.66 1.58 1.61 1.58 1.44 1.44 1.48 1.46 1.40 1.26 1.16 1.15 1.18 1.22 1.32 1.32 1.44 1.56 1.49 1.37 1.35 1.28 1.22 1.24
1.81 2.27 2.35 1.05 0.86 1.48 1.88 1.49 1.45 1.43 1.36 1.31 1.25 1.21 1.24 1.36 1.60 1.71 1.81 1.75 1.67 1.62 1.54 1.47 1.44 1.47 1.49 1.45 1.25 1.14 1.12 1.18 1.24 1.24 1.18 1.16 1.37 1.49 1.44 1.38 1.33 1.28 1.23 1.17
1.95 2.12 1.61 0.97 1.02 1.11 1.23 1.31 1.29 1.30 1.21 1.13 1.17 1.18 1.14 1.28 1.46 1.62 1.75 1.71 1.68 1.59 1.50 1.43 1.40 1.44 1.44 1.30 1.08 1.02 1.11 1.26 1.32 1.26 1.30 1.29 1.29 1.34 1.42 1.44 1.30 1.19 1.15 1.08
1.75 1.65 1.27 1.00 0.90 0.90 1.01 1.16 1.15 1.20 1.16 1.11 1.25 1.26 1.17 1.24 1.39 1.57 1.64 1.49 1.45 1.39 1.33 1.27 1.21 1.18 1.17 1.07 1.01 1.08 1.19 1.28 1.30 1.30 1.37 1.36 1.29 1.16 1.13 1.14 1.11 1.04 1.01 0.93
2.06 1.85 1.52 1.16 0.97 0.98 1.03 1.09 1.17 1.28 1.23 1.19 1.22 1.24 1.22 1.24 1.30 1.33 1.42 1.41 1.31 1.23 1.15 1.04 1.00 0.97 0.90 0.88 0.91 1.04 1.14 1.20 1.21 1.21 1.25 1.31 1.22 1.08 1.03 0.95 0.89 0.86 0.80 0.72
2.43 1.98 1.86 1.44 1.11 1.12 1.19 1.19 1.22 1.21 1.10 1.02 1.01 1.07 1.10 1.11 1.12 1.14 1.21 1.28 1.29 1.16 1.08 0.96 0.91 0.91 0.85 0.80 0.83 0.95 1.04 1.02 0.97 1.00 1.03 1.05 1.09 1.04 0.85 0.70 0.62 0.57 0.56 0.54
1.93 1.57 1.43 1.33 1.19 1.22 1.20 1.02 0.96 0.99 0.96 0.91 0.90 0.94 0.98 0.94 0.94 1.00 1.10 1.10 1.11 1.07 0.96 0.92 0.87 0.84 0.81 0.77 0.77 0.85 0.97 0.95 0.84 0.78 0.84 0.88 0.87 0.97 0.92 0.69 0.49 0.41 0.42 0.47
1.41 1.33 1.29 1.09 0.99 0.92 0.83 0.76 0.76 0.85 0.85 0.77 0.76 0.82 0.86 0.83 0.84 0.90 1.01 0.96 0.92 0.87 0.80 0.84 0.86 0.81 0.73 0.73 0.79 0.81 0.84 0.83 0.78 0.78 0.75 0.73 0.72 0.73 0.76 0.83 0.75 0.58 0.46 0.46
1.07 1.09 1.01 0.81 0.75 0.75 0.66 0.62 0.67 0.74 0.73 0.73 0.69 0.80 0.89 0.84 0.80 0.78 0.87 0.86 0.82 0.79 0.77 0.76 0.79 0.81 0.74 0.74 0.78 0.83 0.85 0.84 0.80 0.76 0.70 0.65 0.63 0.61 0.61 0.67 0.71 0.71 0.65 0.57
0.79 0.77 0.77 0.77 0.77 0.75 0.75 0.70 0.72 0.72 0.72 0.70 0.71 0.76 0.83 0.90 0.84 0.80 0.82 0.80 0.82 0.86 0.82 0.76 0.73 0.67 0.66 0.69 0.70 0.77 0.79 0.78 0.78 0.75 0.64 0.61 0.59 0.60 0.59 0.64 0.68 0.69 0.72 0.72
0.81 0.78 0.78 0.86 0.87 0.88 0.92 0.87 0.80 0.75 0.78 0.75 0.69 0.67 0.69 0.81 0.94 0.96 0.91 0.79 0.78 0.82 0.80 0.78 0.68 0.59 0.59 0.60 0.64 0.65 0.70 0.76 0.76 0.67 0.58 0.55 0.59 0.58 0.56 0.60 0.63 0.67 0.63 0.65
0.81 0.76 0.71 0.80 0.83 0.84 0.85 0.80 0.76 0.74 0.79 0.75 0.63 0.63 0.73 0.83 0.88 0.88 0.84 0.79 0.79 0.82 0.77 0.72 0.64 0.58 0.57 0.59 0.62 0.61 0.66 0.68 0.67 0.60 0.56 0.52 0.53 0.55 0.55 0.57 0.60 0.65 0.64 0.64
0.73 0.69 0.62 0.64 0.69 0.73 0.74 0.75 0.73 0.62 0.63 0.67 0.65 0.66 0.71 0.81 0.82 0.82 0.84 0.84 0.88 0.90 0.79 0.66 0.60 0.59 0.63 0.66 0.66 0.63 0.63 0.64 0.65 0.64 0.60 0.56 0.55 0.56 0.57 0.60 0.61 0.63 0.65 0.66
0.64 0.63 0.62 0.61 0.62 0.68 0.74 0.72 0.68 0.61 0.59 0.66 0.70 0.71 0.74 0.76 0.76 0.80 0.84 0.90 0.89 0.77 0.71 0.66 0.60 0.59 0.62 0.72 0.75 0.69 0.68 0.65 0.62 0.63 0.66 0.67 0.66 0.62 0.56 0.52 0.53 0.55 0.59 0.60
0.61 0.60 0.60 0.62 0.64 0.64 0.65 0.64 0.64 0.64 0.62 0.67 0.75 0.83 0.85 0.78 0.73 0.77 0.81 0.86 0.84 0.76 0.70 0.68 0.64 0.66 0.64 0.68 0.73 0.69 0.67 0.67 0.61 0.55 0.54 0.56 0.60 0.60 0.57 0.54 0.52 0.50 0.51 0.55
0.65 0.62 0.56 0.56 0.58 0.62 0.63 0.63 0.65 0.62 0.60 0.65 0.74 0.82 0.89 0.84 0.77 0.75 0.72 0.76 0.76 0.75 0.74 0.67 0.63 0.67 0.67 0.65 0.66 0.65 0.58 0.59 0.60 0.53 0.47 0.45 0.44 0.44 0.45 0.49 0.54 0.54 0.52 0.54
0.69 0.63 0.55 0.54 0.55 0.58 0.54 0.53 0.59 0.62 0.62 0.66 0.72 0.76 0.80 0.76 0.72 0.74 0.73 0.69 0.69 0.71 0.70 0.69 0.74 0.68 0.58 0.54 0.61 0.63 0.61 0.59 0.57 0.51 0.45 0.41 0.41 0.42 0.42 0.42 0.45 0.45 0.47 0.49
0.70 0.63 0.58 0.52 0.50 0.53 0.57 0.57 0.55 0.59 0.63 0.65 0.67 0.71 0.72 0.72 0.69 0.62 0.60 0.66 0.66 0.61 0.59 0.65 0.67 0.59 0.53 0.49 0.51 0.52 0.55 0.56 0.55 0.52 0.50 0.47 0.46 0.48 0.46 0.43 0.42 0.41 0.41 0.42
0.77 0.68 0.58 0.55 0.59 0.62 0.63 0.62 0.61 0.61 0.69 0.71 0.67 0.68 0.68 0.69 0.69 0.63 0.58 0.61 0.65 0.61 0.56 0.57 0.59 0.56 0.48 0.45 0.47 0.50 0.50 0.49 0.49 0.48 0.48 0.52 0.52 0.51 0.47 0.44 0.44 0.45 0.46 0.47
0.89 0.81 0.72 0.66 0.62 0.61 0.63 0.67 0.69 0.66 0.72 0.78 0.76 0.70 0.68 0.64 0.58 0.57 0.61 0.64 0.66 0.65 0.57 0.54 0.56 0.57 0.51 0.47 0.50 0.49 0.46 0.45 0.43 0.43 0.45 0.48 0.47 0.48 0.47 0.46 0.47 0.46 0.46 0.47
0.97 0.92 0.87 0.73 0.61 0.59 0.66 0.72 0.73 0.70 0.66 0.68 0.69 0.66 0.65 0.62 0.58 0.58 0.63 0.68 0.69 0.66 0.62 0.59 0.58 0.59 0.58 0.55 0.55 0.55 0.54 0.55 0.53 0.50 0.46 0.45 0.42 0.43 0.42 0.39 0.41 0.43 0.44 0.44